EW5627 Weather Reports


Display with metric or nautical units.
time (UTC)temp
F
wind
direction
speed
MPH
gust
MPH
rain 1hr
in
rain 24hr
in
rain mn
in
humidity
%
barometer
mb
20260503021519 49 19 0.0 0.0 0.00 0.03 0.03 51 1010.3
20260503020015 50 19 0.0 0.0 0.00 0.03 0.03 52 1010.3
20260503014514 50 19 0.0 1.0 0.00 0.03 0.03 52 1010.3
20260503013014 51 54 0.0 0.0 0.00 0.03 0.03 50 1010.3
20260503011525 51 61 0.0 0.0 0.00 0.03 0.03 48 1010.3
20260503010013 52 48 0.0 0.0 0.00 0.03 0.03 45 1010.1
20260503004513 52 18 0.0 2.0 0.00 0.03 0.03 43 1009.9
20260503003112 52 5 0.0 0.0 0.00 0.03 0.03 42 1009.9
20260503001613 52 5 0.0 0.0 0.00 0.03 0.03 43 1009.8
20260503000011 53 298 0.0 2.0 0.00 0.03 0.03 42 1009.7
20260502234527 54 293 0.0 0.0 0.00 0.03 0.03 41 1009.6
20260502233010 55 263 0.0 0.0 0.00 0.03 0.03 41 1009.4
20260502231509 55 231 0.0 0.0 0.00 0.03 0.03 40 1009.2
20260502230007 56 240 0.0 0.0 0.00 0.03 0.03 42 1009.1
20260502224511 57 238 0.0 0.0 0.00 0.03 0.03 43 1009.0
20260502223006 57 246 0.0 0.0 0.00 0.03 0.03 43 1009.0
20260502221506 57 242 0.0 0.0 0.00 0.03 0.03 41 1009.0
20260502220017 59 282 0.0 0.0 0.00 0.03 0.03 40 1008.9
20260502214506 61 249 0.0 0.0 0.00 0.03 0.03 37 1008.9
20260502213010 62 237 0.0 0.0 0.00 0.03 0.03 36 1008.7
20260502211503 62 245 0.0 0.0 0.00 0.03 0.03 38 1008.7
20260502210111 62 232 0.0 0.0 0.00 0.03 0.03 38 1008.5
20260502204608 61 47 0.0 0.0 0.00 0.03 0.03 39 1008.6
20260502203105 60 355 0.0 0.0 0.00 0.03 0.03 42 1008.7
20260502201551 60 250 0.0 0.0 0.00 0.03 0.03 44 1009.0
20260502200048 59 207 0.0 0.0 0.00 0.03 0.03 49 1008.9
20260502194552 58 13 0.0 0.0 0.00 0.03 0.03 51 1009.1
20260502193043 58 294 0.0 0.0 0.00 0.03 0.03 59 1009.4
20260502191543 56 88 0.0 0.0 0.00 0.03 0.03 62 1009.7
20260502190040 56 206 0.0 0.0 0.00 0.03 0.03 60 1009.9
20260502184541 56 36 0.0 0.0 0.00 0.03 0.03 59 1010.0
20260502183043 57 108 0.0 0.0 0.00 0.03 0.03 62 1010.1
20260502181538 57 14 0.0 0.0 0.00 0.03 0.03 64 1010.1
20260502163045 57 248 0.0 0.0 0.00 0.03 0.03 65 1010.6
20260502161528 56 246 0.0 0.0 0.00 0.03 0.03 68 1010.7
20260502151521 56 250 0.0 0.0 0.00 0.03 0.03 77 1010.8
20260502130108 49 150 0.0 0.0 0.00 0.03 0.03 90 1011.3
20260502123105 49 150 0.0 0.0 0.00 0.03 0.03 92 1011.1
20260502121559 49 150 0.0 0.0 0.00 0.03 0.03 92 1010.9
20260502114552 48 149 0.0 0.0 0.00 0.03 0.03 92 1010.9
20260502113052 47 149 0.0 0.0 0.00 0.03 0.03 92 1011.0
20260502111549 47 149 0.0 0.0 0.00 0.03 0.03 91 1010.6
20260502110046 47 149 0.0 0.0 0.01 0.03 0.03 91 1010.6
20260502104544 47 149 0.0 0.0 0.01 0.03 0.03 91 1010.5
20260502103044 47 149 0.0 0.0 0.03 0.03 0.03 91 1010.5
20260502101539 47 149 0.0 0.0 0.03 0.03 0.03 90 1010.5
20260502071521 49 165 0.0 0.0 0.00 0.00 0.00 86 1010.7
20260502070020 49 165 0.0 0.0 0.00 0.00 0.00 85 1010.2
20260502064533 49 165 0.0 0.0 0.00 0.00 0.00 86 1010.2
20260502063022 49 165 0.0 0.0 0.00 0.00 0.00 86 1010.3
20260502061517 49 165 0.0 0.0 0.00 0.00 0.00 86 1010.6
20260502060015 49 165 0.0 0.0 0.00 0.00 0.00 86 1010.6
20260502054515 49 165 0.0 0.0 0.00 0.00 0.00 85 1010.6
20260502053013 49 165 0.0 0.0 0.00 0.00 0.00 85 1010.7
20260502051517 49 165 0.0 0.0 0.00 0.00 0.00 85 1010.7
20260502050014 49 165 0.0 0.0 0.00 0.00 0.00 85 1010.6
20260502044511 49 165 0.0 0.0 0.00 0.00 0.00 85 1010.7
20260502043008 49 161 0.0 0.0 0.00 0.00 0.00 84 1010.8
20260502041507 49 162 0.0 0.0 0.00 0.00 0.00 84 1010.8
20260502040003 49 189 0.0 0.0 0.00 0.00 0.00 82 1010.8
20260502034601 49 193 0.0 0.0 0.00 0.00 0.00 82 1010.8
20260502033100 49 178 0.0 0.0 0.00 0.00 0.00 81 1010.8
20260502031601 49 171 0.0 0.0 0.00 0.00 0.00 80 1010.9
20260502030058 49 171 0.0 0.0 0.00 0.00 0.00 79 1011.1
20260502024557 49 171 0.0 0.0 0.00 0.00 0.00 78 1011.1
20260502023057 50 171 0.0 0.0 0.00 0.00 0.00 76 1011.1